• In Uzbekistan
  • List of Countries
  • For 7 days
  • Water Temperature
  • Satellite Maps
  • Weather Map
  • Weather Widgets
  • user-avatar
    Login

    Hourly Weather Mazari Sharif

    Today, 23 May, Thursday

    Time Temperature Precipitation Wind Pressure Humidity
    00:00 +15°C° 0 mm 4 mps 653 mmHg 26%
    01:00 +15°C° 0 mm 4 mps 653 mmHg 25%
    02:00 +14°C° 0 mm 3 mps 653 mmHg 25%
    03:00 +13°C° 0 mm 3 mps 653 mmHg 25%
    04:00 +13°C° 0 mm 3 mps 653 mmHg 26%
    05:00 +13°C° 0.1 mm 3 mps 653 mmHg 25%
    06:00 +14°C° 0.1 mm 3 mps 653 mmHg 25%
    07:00 +14°C° 0.1 mm 3 mps 654 mmHg 25%
    08:00 +16°C° 0.2 mm 2 mps 654 mmHg 27%
    09:00 +17°C° 0.2 mm 2 mps 654 mmHg 29%
    10:00 +18°C° 0.2 mm 1 mps 654 mmHg 31%
    11:00 +18°C° 0.2 mm 2 mps 654 mmHg 32%
    12:00 +19°C° 0.2 mm 2 mps 654 mmHg 32%
    13:00 +20°C° 0.2 mm 3 mps 654 mmHg 32%
    14:00 +20°C° 0.1 mm 3 mps 654 mmHg 32%
    15:00 +20°C° 0.1 mm 3 mps 654 mmHg 32%
    16:00 +20°C° 0.1 mm 3 mps 654 mmHg 32%
    17:00 +19°C° 0.1 mm 3 mps 654 mmHg 34%
    18:00 +19°C° 0.1 mm 3 mps 654 mmHg 37%
    19:00 +18°C° 0.1 mm 3 mps 654 mmHg 40%
    20:00 +17°C° 0.9 mm 3 mps 654 mmHg 46%
    21:00 +14°C° 0.9 mm 3 mps 654 mmHg 52%
    22:00 +12°C° 0.9 mm 3 mps 654 mmHg 58%
    23:00 +14°C° 0.6 mm 2 mps 653 mmHg 57%

    Tomorrow, 24 May, Friday

    Time Temperature Precipitation Wind Pressure Humidity
    00:00 +14°C° 0.6 mm 2 mps 653 mmHg 56%
    01:00 +14°C° 0.6 mm 1 mps 653 mmHg 56%
    02:00 +14°C° 0.1 mm 1 mps 653 mmHg 57%
    03:00 +14°C° 0.1 mm 1 mps 653 mmHg 58%
    04:00 +14°C° 0.1 mm 1 mps 654 mmHg 59%
    05:00 +14°C° 0 mm 1 mps 654 mmHg 55%
    06:00 +15°C° 0 mm 1 mps 655 mmHg 52%
    07:00 +16°C° 0 mm 1 mps 655 mmHg 48%
    08:00 +18°C° 0 mm 1 mps 655 mmHg 44%
    09:00 +19°C° 0 mm 1 mps 656 mmHg 40%
    10:00 +19°C° 0 mm 2 mps 656 mmHg 37%
    11:00 +20°C° 0 mm 2 mps 656 mmHg 35%
    12:00 +21°C° 0 mm 2 mps 656 mmHg 33%
    13:00 +22°C° 0 mm 3 mps 656 mmHg 32%
    14:00 +22°C° 0 mm 3 mps 656 mmHg 32%
    15:00 +22°C° 0 mm 3 mps 656 mmHg 32%
    16:00 +22°C° 0 mm 3 mps 656 mmHg 32%
    17:00 +21°C° 0 mm 3 mps 656 mmHg 35%
    18:00 +20°C° 0 mm 2 mps 656 mmHg 38%
    19:00 +20°C° 0 mm 1 mps 656 mmHg 41%
    20:00 +20°C° 0 mm 1 mps 656 mmHg 42%
    21:00 +19°C° 0 mm 1 mps 657 mmHg 43%
    22:00 +19°C° 0 mm 1 mps 657 mmHg 44%
    23:00 +18°C° 0 mm 1 mps 656 mmHg 43%

    Day after tomorrow, 25 May, Saturday

    Time Temperature Precipitation Wind Pressure Humidity
    00:00 +18°C° 0 mm 1 mps 656 mmHg 42%
    01:00 +16°C° 0 mm 1 mps 656 mmHg 41%
    02:00 +16°C° 0 mm 1 mps 656 mmHg 41%
    03:00 +16°C° 0 mm 1 mps 656 mmHg 40%
    04:00 +16°C° 0 mm 1 mps 656 mmHg 39%
    05:00 +18°C° 0 mm 1 mps 657 mmHg 36%
    06:00 +20°C° 0 mm 1 mps 657 mmHg 33%
    07:00 +21°C° 0 mm 1 mps 658 mmHg 31%
    08:00 +21°C° 0 mm 2 mps 658 mmHg 29%
    09:00 +22°C° 0 mm 3 mps 659 mmHg 26%
    10:00 +22°C° 0 mm 3 mps 659 mmHg 24%
    11:00 +23°C° 0 mm 4 mps 659 mmHg 25%
    12:00 +23°C° 0 mm 4 mps 659 mmHg 25%
    13:00 +25°C° 0 mm 5 mps 659 mmHg 26%
    14:00 +23°C° 0.1 mm 4 mps 658 mmHg 28%
    15:00 +23°C° 0.1 mm 4 mps 658 mmHg 30%
    16:00 +23°C° 0.1 mm 4 mps 658 mmHg 32%
    17:00 +22°C° 0.3 mm 3 mps 658 mmHg 35%
    18:00 +21°C° 0.3 mm 3 mps 658 mmHg 38%
    19:00 +20°C° 0.3 mm 2 mps 658 mmHg 41%
    20:00 +19°C° 0.1 mm 2 mps 658 mmHg 41%
    21:00 +19°C° 0.1 mm 2 mps 658 mmHg 42%
    22:00 +18°C° 0.1 mm 3 mps 658 mmHg 42%
    23:00 +18°C° 0 mm 3 mps 658 mmHg 43%

    26 May, Sunday

    Time Temperature Precipitation Wind Pressure Humidity
    00:00 +17°C° 0 mm 2 mps 657 mmHg 43%
    01:00 +17°C° 0 mm 2 mps 657 mmHg 44%
    02:00 +17°C° 0 mm 2 mps 657 mmHg 44%
    03:00 +16°C° 0 mm 2 mps 657 mmHg 44%
    04:00 +16°C° 0 mm 2 mps 657 mmHg 44%
    05:00 +17°C° 0 mm 2 mps 657 mmHg 40%
    06:00 +18°C° 0 mm 2 mps 658 mmHg 36%
    07:00 +21°C° 0 mm 1 mps 658 mmHg 32%
    08:00 +22°C° 0 mm 1 mps 659 mmHg 31%
    09:00 +23°C° 0 mm 1 mps 659 mmHg 29%
    10:00 +24°C° 0 mm 1 mps 659 mmHg 27%
    11:00 +24°C° 0 mm 2 mps 659 mmHg 26%
    12:00 +25°C° 0 mm 2 mps 658 mmHg 25%
    13:00 +26°C° 0 mm 3 mps 658 mmHg 24%
    14:00 +26°C° 0 mm 3 mps 658 mmHg 24%
    15:00 +26°C° 0 mm 3 mps 658 mmHg 24%
    16:00 +26°C° 0 mm 3 mps 658 mmHg 24%
    17:00 +25°C° 0 mm 3 mps 658 mmHg 25%
    18:00 +24°C° 0 mm 3 mps 658 mmHg 27%
    19:00 +23°C° 0 mm 2 mps 658 mmHg 29%
    20:00 +21°C° 0 mm 2 mps 657 mmHg 30%
    21:00 +21°C° 0 mm 2 mps 657 mmHg 31%
    22:00 +21°C° 0 mm 1 mps 657 mmHg 32%
    23:00 +20°C° 0 mm 1 mps 657 mmHg 33%

    27 May, Monday

    Time Temperature Precipitation Wind Pressure Humidity
    00:00 +20°C° 0 mm 1 mps 656 mmHg 35%
    01:00 +19°C° 0 mm 1 mps 656 mmHg 36%
    02:00 +18°C° 0 mm 1 mps 656 mmHg 36%
    03:00 +18°C° 0 mm 1 mps 655 mmHg 37%
    04:00 +18°C° 0 mm 1 mps 655 mmHg 37%
    05:00 +19°C° 0 mm 1 mps 656 mmHg 33%
    06:00 +21°C° 0 mm 1 mps 657 mmHg 29%
    07:00 +23°C° 0 mm 1 mps 657 mmHg 25%
    08:00 +24°C° 0 mm 2 mps 658 mmHg 23%
    09:00 +25°C° 0 mm 2 mps 658 mmHg 21%
    10:00 +26°C° 0 mm 2 mps 658 mmHg 19%
    11:00 +27°C° 0 mm 3 mps 658 mmHg 18%
    12:00 +28°C° 0 mm 3 mps 658 mmHg 17%
    13:00 +28°C° 0 mm 3 mps 658 mmHg 16%
    14:00 +28°C° 0 mm 3 mps 657 mmHg 16%
    15:00 +28°C° 0 mm 3 mps 657 mmHg 15%
    16:00 +28°C° 0 mm 3 mps 657 mmHg 15%
    17:00 +27°C° 0 mm 3 mps 657 mmHg 18%
    18:00 +25°C° 0 mm 2 mps 657 mmHg 20%
    19:00 +24°C° 0 mm 1 mps 657 mmHg 22%
    20:00 +23°C° 0 mm 1 mps 657 mmHg 24%
    21:00 +22°C° 0 mm 1 mps 657 mmHg 25%
    22:00 +21°C° 0 mm 1 mps 656 mmHg 27%
    23:00 +21°C° 0 mm 1 mps 656 mmHg 28%

    28 May, Tuesday

    Time Temperature Precipitation Wind Pressure Humidity
    00:00 +20°C° 0 mm 1 mps 656 mmHg 28%
    01:00 +20°C° 0 mm 1 mps 655 mmHg 29%
    02:00 +19°C° 0 mm 1 mps 655 mmHg 29%
    03:00 +19°C° 0 mm 1 mps 655 mmHg 30%
    04:00 +18°C° 0 mm 1 mps 655 mmHg 30%
    05:00 +20°C° 0 mm 1 mps 656 mmHg 26%
    06:00 +22°C° 0 mm 1 mps 657 mmHg 23%
    07:00 +24°C° 0 mm 1 mps 658 mmHg 19%
    08:00 +25°C° 0 mm 1 mps 658 mmHg 17%
    09:00 +26°C° 0 mm 1 mps 658 mmHg 16%
    10:00 +27°C° 0 mm 2 mps 658 mmHg 14%
    11:00 +28°C° 0 mm 2 mps 658 mmHg 14%
    12:00 +29°C° 0 mm 3 mps 658 mmHg 13%
    13:00 +30°C° 0 mm 3 mps 658 mmHg 12%
    14:00 +30°C° 0 mm 3 mps 658 mmHg 12%
    15:00 +30°C° 0 mm 3 mps 658 mmHg 12%
    16:00 +30°C° 0 mm 3 mps 657 mmHg 13%
    17:00 +28°C° 0 mm 3 mps 657 mmHg 15%
    18:00 +27°C° 0 mm 2 mps 657 mmHg 17%
    19:00 +25°C° 0 mm 1 mps 657 mmHg 19%
    20:00 +25°C° 0 mm 1 mps 657 mmHg 19%
    21:00 +24°C° 0 mm 1 mps 657 mmHg 20%
    22:00 +23°C° 0 mm 1 mps 657 mmHg 21%
    23:00 +23°C° 0 mm 1 mps 656 mmHg 21%
    Show more